星链-36950(STARLINK-36950)

导读

STARLINK-36950(NORAD编号67992)是美国太空探索技术公司(SpaceX)星链(Starlink)项目的低轨互联网通信卫星,归属Starlink V1.0平台。该卫星运行在近地轨道,轨道倾角约70°,近地点高度约570公里,周期约96分钟,属于SpaceX大规模组网的低轨卫星星座的一部分。 作为星链项目的组成卫星,它承担全球互联网覆盖任务,为偏远地区及特殊场景提供高速低延迟网络服务,目前它也在SpaceX 2026年轨道调整计划范围内,后续轨道高度将逐步降低以提升太空安全性,减少空间碎片风险。

基本信息
目录编号:
67992
目录名称:
STARLINK-36950
国际标识:
2026-039G
轨道中心:
EARTH
卫星名称:
星链-36950
卫星全名:
星链-36950(STARLINK-36950)
卫星状态:
在轨 (已飞行151 天)
发射日期:
2026-02-27 UTC
国别 :
美国 (US)
星等 :
--
轨道信息
数据来源 国际轨道数据
星历时间: 2026-07-27T16:43:55+0800
17小时前
查看轨道信息
半长轴: 6861.093km
偏心率: 0.0000846
轨道倾角: 43.000°
近地点辐角 227.554°
升交点赤经 340.237°
平近点角 132.524°
近地点: 482.375km
远地点: 483.537km
周期: 94.265分钟
每日圈数: 15.276114
详细信息
固有亮度:
5
最大亮度:
2.5
卫星平台:
Starlink V1.0
覆盖范围:
全球
运营商:
太空探索技术公司
运营商所在国:
美国
制造商(研发单位):
太空探索技术公司
制造商所在国:
美国
使用方式:
暂无
卫星简介
Starlink 计划是 SpaceX 推出的全球卫星互联网项目,通过发射低轨道卫星,为全球尤其是偏远地区提供高速、低延迟的互联网服务。自 2019 年起,Starlink 已部署数千颗卫星,旨在缩小全球数字鸿沟,推动互联网普及。该项目还为军事、航空等行业提供通信支持,带来广泛经济效益。
2D轨道图
3D轨道图
轨道高度分析图
轨道倾角分析图
轨道综合分析图
查看轨道综合分析图